Hors Challenge

Le Trail De Sambreville - Falisolle (17.00 km)

dimanche 16 juin 2019

Vous pouvez trouver Le classement original sur : http://ultratiming.be
 
LE TRAIL DE SAMBREVILLE - FALISOLLE
DISTANCE 16.91 km
dimanche 16 juin 2019
 
Place dos NOM Equipe Catégorie Pl/cat temps temps/km Vitesse
01:00:00                
1 924 BUCCI NICOLAS PUPUNTARRR SEH 1 1:14:36 04:25 13.60
2 948 PAHOS ANDREAS - SEH 2 1:14:40 04:25 13.59
3 947 FOX DAVID TRAKKS TEAM SEH 3 1:15:35 04:28 13.42
4 886 TERMEER ROBBIE - SEH 4 1:15:45 04:29 13.39
5 864 TOMSON THOMAS TOM TOM CLUB SEH 5 1:16:59 04:33 13.18
6 950 HENRIET NICOLAS FLEU SEH 6 1:18:50 04:40 12.87
7 921 DUPONT DAMIEN - SEH 7 1:19:28 04:42 12.77
8 868 VANDENDRIESSCHE ARNAUD - SEH 8 1:19:33 04:42 12.75
9 878 BERTI ROMAIN CROSSFITBOOS SEH 9 1:21:19 04:49 12.48
10 852 MAES ROMAIN JOGGING PRESLES SEH 10 1:21:28 04:49 12.45
11 923 PATRIS LOUIS - SEH 11 1:21:41 04:50 12.42
12 850 LOPEZ-FANEGO JONATHAN - SEH 12 1:22:42 04:53 12.27
13 814 CRABBE FABRICE - V1H 1 1:22:48 04:54 12.25
14 885 RIGUELLE FRANCOIS FLEU SEH 13 1:22:57 04:54 12.23
15 955 ADRIOUCKI ALSLELILAL - SEH 14 1:23:31 04:56 12.15
16 866 VAN CAUWENBERG JELLE IRONTEAM MECHELEN SEH 15 1:23:45 04:57 12.11
17 939 RENARD GIL - SEH 16 1:24:12 04:59 12.05
18 836 JASPARD JÉRÔME - V1H 2 1:25:12 05:02 11.91
19 907 GREGOIRE CHRISTOPHE KIKAMAX SEH 17 1:25:12 05:02 11.91
20 905 MIRISOLA PAOLO - V1H 3 1:25:42 05:04 11.84
21 887 CHOFFRAY MARC - V2H 1 1:27:04 05:09 11.65
22 954 MAQUET JORDA - SEH 18 1:27:43 05:11 11.57
23 854 MAQUET JULIEN - SEH 19 1:27:47 05:11 11.56
24 873 VERSLYPE ALAN COACHING ZONE SEH 20 1:27:50 05:12 11.55
25 917 BOULLARD JULIEN JTT SEH 21 1:28:07 05:13 11.51
26 875 ZACCHELLO RENATO - V2H 2 1:28:11 05:13 11.51
27 862 ROQUET RAPHAEL - V1H 4 1:28:12 05:13 11.50
28 942 SCHRAUWEN KOEN - SEH 22 1:28:34 05:14 11.46
29 930 CAPPELLE STÉPHANIE TRAINING 7 SEF 1 1:28:38 05:15 11.45
30 929 MORREN JEREMY TRAKKS - SCOTT SEH 23 1:28:39 05:15 11.44
31 941 LERAT FRÉDÉRIC - V1H 5 1:28:42 05:15 11.44
32 877 PIRON CEDRIC TEAM SWDE V1H 6 1:28:43 05:15 11.44
33 823 DELONGUEIL DOMINIQUE FLEURUS V1H 7 1:28:48 05:15 11.43
34 834 GYS HANS - V1H 8 1:29:20 05:17 11.36
35 899 PIRSON ADRIEN PROMOSPORT RACING TE SEH 24 1:29:29 05:18 11.34
36 865 URBAIN BAUDOUIN - V1H 9 1:29:53 05:19 11.29
37 835 JACQMAIN RUDY - V1H 10 1:30:13 05:20 11.25
38 845 LEONELLI PACO - ESPH 1 1:30:34 05:21 11.20
39 957 BRUNO STEPHANO - V1H 11 1:30:45 05:22 11.18
40 880 FANCHINI NICOLAS - SEH 25 1:31:23 05:24 11.10
41 953 TANG XIAO HUA SIGHT RUNNING SEH 26 1:31:39 05:25 11.07
42 818 DE VRIENDT JEFFRY - SEH 27 1:32:32 05:28 10.96
43 879 DEPRE DANIEL - V2H 3 1:32:53 05:30 10.92
44 860 RENAUX LISE - SEF 2 1:33:23 05:31 10.86
45 956 MILER DANY - V1H 12 1:33:39 05:32 10.83
46 833 GROZA GATIS - SEH 28 1:33:40 05:32 10.83
47 837 JAVAUX MAXIME Q3T V1H 13 1:34:00 05:34 10.79
48 928 POUCET OLIVIER - V1H 14 1:34:47 05:36 10.70
49 809 BRAYEUR PHILIPPE - V1H 15 1:34:57 05:37 10.69
50 931 ALCOVER MICHAEL LES BOUFFIOLS SEH 29 1:35:03 05:37 10.67
51 897 DAMBROISE KRISTEL - ESPF 1 1:36:44 05:43 10.49
52 949 GIAUX DAVID - SEH 30 1:36:56 05:44 10.47
53 906 CORLIER JULIEN FLEU SEH 31 1:37:03 05:44 10.45
54 909 DRAYE RENAUD ESM SEH 32 1:37:25 05:46 10.41
55 943 LAMBERT MAËLLE - SEF 3 1:37:27 05:46 10.41
56 934 PICKE ELODIE - SEF 4 1:38:29 05:49 10.30
57 808 BOUVIER BENOIT - V1H 16 1:38:55 05:51 10.26
58 853 MAHY JEAN-FRANÇOIS AUCUN V1H 17 1:38:58 05:51 10.25
59 872 VERPLANCKE RÉGIS ESM SEH 33 1:40:49 05:58 10.06
60 843 LEFEBVRE MICHAEL - V1H 18 1:40:50 05:58 10.06
61 830 GEORGES OLIVIER - SEH 34 1:41:04 05:59 10.04
62 915 DEVILLE THIERRY - V1H 19 1:41:18 05:59 10.02
63 869 VANLUYCK SONIA - V1F 1 1:41:30 06:00 10.00
64 801 ANTOINE CEDRIC - SEH 35 1:42:18 06:03 9.92
65 863 SARTORI MICHAEL FLEURUS V1H 20 1:42:54 06:05 9.86
66 920 FONTGNOY THIBAUT CHAVN BELGTTES TEAM SEH 36 1:43:09 06:06 9.84
67 838 KARL GILLOT - V1H 21 1:43:12 06:06 9.83
68 925 DRICOT MAXIMILIEN - SEH 37 1:43:14 06:06 9.83
69 926 LIMBOURG YORAN - SEH 38 1:43:19 06:07 9.82
70 898 ROUSSEAU NICOLAS RUN FLY SEH 39 1:43:22 06:07 9.82
71 844 LEO PIERRE - SEH 40 1:43:23 06:07 9.81
72 913 ROUSSELLE JOEL - V3H 1 1:43:35 06:08 9.79
73 914 THONON DANNY TRAIL HOMME DE SPY V2H 4 1:43:37 06:08 9.79
74 804 BEAUJEAN GAUTIER JTT V1H 22 1:44:16 06:10 9.73
75 842 LECROART ELODIE - SEF 5 1:44:18 06:10 9.73
76 932 VERSCHEURE MARJOLAINE - SEF 6 1:44:42 06:12 9.69
77 892 VAN HESPEN BENOIT - V2H 5 1:44:48 06:12 9.68
78 811 BURTON JULIEN - SEH 41 1:44:54 06:12 9.67
79 848 LISSOIR NATHAN - ESPH 2 1:45:11 06:13 9.65
80 820 DELABY JEAN-MARC - V2H 6 1:45:24 06:14 9.63
81 859 PONDEVILLE NATHALIE - V1F 2 1:46:00 06:16 9.57
82 805 BERNARD JEAN FLEURUS ATHLÉTISME V2H 7 1:46:00 06:16 9.57
83 904 VANVLASSELAER CÉCILE - V1F 3 1:46:01 06:16 9.57
84 890 GENETTE DAVID - SEH 42 1:46:12 06:17 9.55
85 847 LISSOIR ERIC - V1H 23 1:46:36 06:18 9.52
86 901 HOUBION MICHAËL - SEH 43 1:46:40 06:18 9.51
87 810 BUNDERVOET STIJN - SEH 44 1:47:13 06:20 9.46
88 908 MERCIER DOMINIQUE CAPTMAIL V2H 8 1:47:22 06:21 9.45
89 871 VERBEECK MICHEL - V2H 9 1:47:22 06:21 9.45
90 827 ENUSET BENOIT - V1H 24 1:47:57 06:23 9.40
91 881 D'AVOLIO PETRO GOBERT RUNNING V3H 2 1:48:00 06:23 9.39
92 922 SILVESTRE FRANCK - V2H 10 1:48:20 06:24 9.37
93 815 CUSTINNE GREGORY LA FOX VILLERSOISE SEH 45 1:48:31 06:25 9.35
94 824 DEMARTIN GAUTHIER - SEH 46 1:49:07 06:27 9.30
95 813 COMANDINI GREGORY - SEH 47 1:49:17 06:28 9.28
96 884 ZICOT AUDREY UAC V1F 4 1:49:57 06:30 9.23
97 883 HOYAUX ETHEL UAC V1F 5 1:49:57 06:30 9.23
98 951 LISSENS JER - SEH 48 1:50:00 06:30 9.22
99 849 LONOBILE GIANCARLO JC MONTAGNARD V2H 11 1:51:01 06:34 9.14
100 894 PIERREUX STEPHANE JCPMF GENAPPE V1H 25 1:51:43 06:36 9.08
101 927 BOLDRIN MARCO - V1H 26 1:52:22 06:39 9.03
102 832 GROSFILS PIERRE - SEH 49 1:53:54 06:44 8.91
103 944 POINSOT AURÉLIE - V2F 1 1:54:38 06:47 8.85
104 822 DELCAMBRE DAPHNÉ - V1F 6 1:55:18 06:49 8.80
105 876 MOUFFE MICHEL UAC V3H 3 1:55:19 06:49 8.80
106 888 THIBEAUX BASTIEN - SEH 50 1:55:21 06:49 8.80
107 889 PROCES MAXIME - SEH 51 1:55:21 06:49 8.80
108 840 LEBRUN DIDIER GAG V2H 12 1:56:57 06:55 8.68
109 855 MARTIN CÉDRIC - SEH 52 1:57:15 06:56 8.65
110 912 HAMBENNE JULIE UAC V1F 7 1:57:56 06:58 8.60
111 910 AMICI ISABELLA UAC V1F 8 1:57:57 06:59 8.60
112 911 FARRIS ROMY UAC V1F 9 1:57:57 06:59 8.60
113 916 DARE GINO FLEU V2H 13 1:58:04 06:59 8.59
114 867 VANDEGEUCHTE STIJN - SEH 53 1:58:31 07:01 8.56
115 935 JACQUES ALAIN - V2H 14 1:59:04 07:02 8.52
116 817 DE KUYSSCHER LYDIA RUNFLY V1F 10 1:59:05 07:03 8.52
117 882 DECHAMPS DAVID - V2H 15 1:59:20 07:03 8.50
118 807 BOEREBOOM ERIC - V1H 27 1:59:43 07:05 8.47
119 802 ARQUIN SOPHIE - SEF 7 2:00:25 07:07 8.43
120 812 CIOCCA LAURE - V1F 11 2:00:27 07:07 8.42
121 861 ROBIOLLE MAÏTÉ - SEF 8 2:00:30 07:08 8.42
122 857 MICHEL PIERRE RUNNING CLUB METTET V2H 16 2:00:31 07:08 8.42
123 825 DETOURNAY JEAN-BERNARD - V2H 17 2:00:46 07:09 8.40
124 826 DEWITTE FABIENNE - V1F 12 2:00:46 07:09 8.40
125 874 WATHELET VANESSA - V1F 13 2:01:11 07:10 8.37
126 896 FERRACIN THIERRY JCPMF GENAPPE V1H 28 2:02:05 07:13 8.31
127 846 LIÉNART RAPHAËL - SEH 54 2:02:10 07:13 8.30
128 933 PIERRET SYLVIE - SEF 9 2:02:11 07:14 8.30
129 945 CAMBIER AURÉLIE - SEF 10 2:04:55 07:23 8.12
130 946 DIEUX CAROLINE - SEF 11 2:04:56 07:23 8.12
131 831 GLINNE ANAÏS - SEF 12 2:05:09 07:24 8.11
132 829 GAYE ROMAIN - SEH 55 2:06:58 07:31 7.99
133 856 MARTORANA PAOLO - V1H 29 2:06:58 07:31 7.99
134 919 QUIX JOHN - SEH 56 2:07:34 07:33 7.95
135 918 LEMBRECHETS ROELAND - SEH 57 2:07:35 07:33 7.95
136 895 BROCCA LUDIVINE JCPMF GENAPPE SEF 13 2:07:41 07:33 7.95
137 893 DEKAN ISABELLE JCPMF GENAPPE V1F 14 2:07:42 07:33 7.94
138 940 GREGOIRE NICOLAS - V1H 30 2:08:23 07:36 7.90
139 821 DELBOUILLE THIERRY - V2H 18 2:12:36 07:51 7.65
140 891 LION PATRICIA JCPMF V2F 2 2:22:04 08:24 7.14
141 903 DUBOIS MARC BAULET V2H 19 2:22:04 08:24 7.14
142 937 GANDIBLEUX KARINE - V2F 3 2:22:04 08:24 7.14
143 902 GOLARD ALAIN JCPMF WANFERCEE-BAUL V3H 4 2:22:04 08:24 7.14
144 851 LORIAUX CHANTAL JCPMF WANFERCEE-BAUL V2F 4 2:22:04 08:24 7.14
145 803 BAUD HUIN CECILE JE COURS POUR MA FOR V2F 5 2:22:04 08:24 7.14
146 936 SCIGLIUZZO DANIEL - V2H 20 2:22:05 08:24 7.14
147 900 ROSY MARTINE JCPMFWB V2F 6 2:22:06 08:24 7.14
148 938 NOWAK ANNE SOPHIE - V1F 15 2:22:06 08:24 7.14
149 816 DE GUCHTENAERE TIM DE BETABLOKKERS SEH 58 2:25:37 08:37 6.97
150 870 VANRAES KRISTEL DE BETABLOKKERS SEF 14 2:25:40 08:37 6.96